Tracking 27405 objects as of 2-Jun-2023
HD Live streaming from Space Station
objects crossing your sky now

URSA MAIOR

Track URSA MAIOR now!
10-day predictions
URSA MAIOR is classified as:


NORAD ID: 42776
Int'l Code: 2017-036M
Perigee: 455.2 km
Apogee: 470.4 km
Inclination: 97.2 °
Period: 93.7 minutes
Semi major axis: 6833 km
RCS: Unknown
Launch date: June 23, 2017
Source: Italy (IT)
Launch site: SRIHARIKOTA (SRI)

Uplink (MHz):
Downlink (MHz): 435.950
Beacon (MHz):
Mode: 9600bps FSK
Call sign: URSAMR
Status: Inactive

Your satellite tracking list
Your tracking list is empty




NASA's NSSDC Master Catalog

Two Line Element Set (TLE):
1 42776U 17036M   23152.31436441  .00021745  00000-0  60520-3 0  9997
2 42776  97.1543 184.1139 0011064 149.7012 210.4875 15.36773889330156
Source of the keplerian elements: AMSAT